Location: Agus-us
(14.2247°N, 120.8593°E)
Time: 18:27:41
(UTC+00:00)

Meteor 2-20 Rocket - Pass Details

Date: 13 December 2025
Orbit: 871 x 1024 km, 82.5° (Epoch: 20 January)

Event Time Altitude Azimuth Distance (km) Brightness Sun altitude
Rises 21:25:37 0° 357° (N) 3,451 7.1 -11.3°
Reaches altitude 10° 21:28:02 10° 358° (N) 2,515 6.4 -10.7°
Maximum altitude 21:33:44 81° 86° (E) 893 4.4 -9.4°
Drops below altitude 10° 21:39:32 10° 173° (S) 2,566 7.1 -8.1°
Sets 21:42:01 0° 174° (S) 3,526 7.8 -7.6°
